Regional Weather Roundup
Issued by NWS State College, PA

Home | Current Version | Previous Version | Text Only | Print | Product List | Glossary On
Versions: 1 2 3 4 5 6 7 8 9 10 11 12 13 14 15 16 17 18 19 20 21 22 23 24 25 26 27 28 29 30 31 32 33 34 35 36 37 38 39 40 41 42 43 44 45 46 47 48 49 50
000
ASUS41 KCTP 231810
RWRCTP

REGIONAL WEATHER ROUNDUP
NATIONAL WEATHER SERVICE STATE COLLEGE PA
200 PM EDT THU OCT 23 2014

Note: "fair" indicates few or no clouds below 12,000 feet with no
significant weather and/or obstructions to visibility.

* = STATION THAT DOES NOT REPORT PRECIPITATION /E.G. RAIN...SNOW...ETC/
    THUNDER OR FOG.

PAZ002>004-007>009-013>016-020>023-029>032-231900-
WESTERN PENNSYLVANIA

CITY           SKY/WX    TMP DP  RH WIND       PRES   REMARKS
ERIE           SUNNY     57  43  59 VRB3      30.14F
MEADVILLE      MOSUNNY   56  40  55 N12G17    30.11F
FRANKLIN*      MOSUNNY   57  37  47 NW5       30.09F
NEW CASTLE       N/A     60  44  55 N12G18    30.12F
BEAVER COUNTY  CLOUDY    59  45  58 NW8G18    30.11F
BUTLER*        PTSUNNY   61  43  51 NW7       30.09F
PITTSBURGH INT MOSUNNY   60  43  53 NW16      30.09F
PITTSBURGH     MOSUNNY   59  39  47 NW13G23   30.06F
INDIANA*       SUNNY     59  41  51 N14G24    30.06F
LATROBE        PTSUNNY  N/A N/A N/A N17       30.08F
WASHINGTON CO* PTSUNNY   57  43  58 NW9       30.11F
$$

PAZ004>006-010>012-017>019-024>028-033>037-041-042-045-046-049>053-231900-
CENTRAL PENNSYLVANIA

CITY           SKY/WX    TMP DP  RH WIND       PRES   REMARKS
BRADFORD       SUNNY     56  39  53 N18G25    30.02F
DUBOIS         SUNNY     57  38  48 NW16G30   30.00F
CLEARFIELD     SUNNY     60  39  45 N21G33    29.97F
JOHNSTOWN      MOSUNNY   54  39  57 NW22G29   29.99F
ALTOONA        SUNNY     58  43  57 NW18G28   29.94F
STATE COLLEGE  PTSUNNY   57  43  58 N12G22    29.93F
WILLIAMSPORT   CLOUDY    57  43  59 NW13G23   29.89R
SELINSGROVE    CLOUDY    60  44  55 N15G28    29.87F
FT INDIANTOWN  CLOUDY    57  47  70 VRB7G21   29.84S
CAPITAL CITY   PTSUNNY   61  45  55 NW14G22   29.84F
HARRISBURG     PTSUNNY   59  44  57 N14G26    29.83F
YORK           CLOUDY    59  45  59 NW16G23   29.85F
$$

PAZ038>040-043-044-047-048-054-055-060>062-067>071-231900-
EASTERN PENNSYLVANIA

CITY           SKY/WX    TMP DP  RH WIND       PRES   REMARKS
SCRANTON       LGT RAIN  48  43  82 N8G18     29.84F
MOUNT POCONO   CLOUDY    43  40  89 N15G32    29.78F
ALLENTOWN      CLOUDY    52  42  69 NW17G23   29.80S
QUAKERTOWN*    CLOUDY    50  45  81 NW13G21   29.80S
READING        CLOUDY    54  44  69 N17       29.82S
LANCASTER      CLOUDY    56  44  64 NW14      29.83S
COATESVILLE    CLOUDY    54  45  71 NW12G23   29.81S
POTTSTOWN      CLOUDY    53  43  68 N12G25    29.81S
BLUE BELL      CLOUDY    54  45  71 NW6G17    29.77S
DOYLESTOWN     CLOUDY    52  45  77 NW14G26   29.76S
WILLOW GROVE   NOT AVBL
NORTH PHILA    LGT RAIN  55  44  66 NW17G24   29.77F
PHILADELPHIA   CLOUDY    56  45  66 NW16G26   29.78S
$$



USA.gov is the U.S. government's official web portal to all federal, state and local government web resources and services.